Chipley, FL

2:37 AM CDT on July 27, 2017 (GMT -0500)
Chipley

Weather History for KVSH - November, 2013

Change the Weather History Date:

Sunday, November 24, 2013

  Actual Average (KDHN) Record (KDHN)
Temperature  
Mean Temperature 48 °F -  
Max Temperature 53 °F 75 °F 81 °F (1967)
Min Temperature 44 °F 52 °F 22 °F (1950)
Degree Days  
Heating Degree Days 16    
Moisture  
Dew Point 27 °F    
Average Humidity 44    
Maximum Humidity 58    
Minimum Humidity 33    
Precipitation  
Precipitation 0.00 in - - ()
Sea Level Pressure  
Sea Level Pressure 30.33 in    
Wind  
Wind Speed 11 mph (NNE)    
Max Wind Speed 16 mph    
Max Gust Speed 24 mph    
Visibility 10 miles    
Events      
Averages and records for this station are not official NWS values.
T = Trace of Precipitation, MM = Missing Value Source: NWS Daily Summary

Daily Weather History Graph

Daily Weather History Graph

Search for Another Location

Airport or City:

Trip Planner

Search our weather history database for the weather conditions in past years. The results will help you decide how hot, cold, wet, or windy it might be!

Date:

Astronomy

Nov. 24, 2013 Rise Set
Actual Time 6:16 AM CST 4:41 PM CST
Civil Twilight 5:50 AM CST 5:07 PM CST
Nautical Twilight 5:21 AM CST 5:36 PM CST
Astronomical Twilight 4:52 AM CST 6:05 PM CST
Moon 10:53 PM CST (11/24) 11:15 AM CST (11/24)
Length of Visible Light 11h 16m
Length of Day
10h 24m
Waning Gibbous, 60% of the Moon is Illuminated
Nov 24
Waning Gibbous
Nov 25
Last Quarter
Dec 2
New
Dec 9
First Quarter
Dec 17
Full

Hourly Weather History & Observations

Time (CST) Temp. Windchill Dew Point Humidity Pressure Visibility Wind Dir Wind Speed Gust Speed Precip Events Conditions
12:15 AM 51.8 °F - 37.4 °F 58% 30.32 in 10.0 mi NNE 12.7 mph 18.4 mph N/A   Clear
12:35 AM 51.8 °F - 35.6 °F 54% 30.32 in 10.0 mi North 10.4 mph 21.9 mph N/A   Mostly Cloudy
12:55 AM 50.0 °F - 35.6 °F 58% 30.31 in 10.0 mi North 11.5 mph 21.9 mph N/A   Scattered Clouds
1:15 AM 50.0 °F - 35.6 °F 58% 30.32 in 10.0 mi North 11.5 mph 21.9 mph N/A   Partly Cloudy
1:35 AM 50.0 °F - 35.6 °F 58% 30.32 in 10.0 mi NNE 13.8 mph 23.0 mph N/A   Clear
1:55 AM 50.0 °F - 35.6 °F 58% 30.32 in 10.0 mi NNE 11.5 mph 20.7 mph N/A   Clear
2:15 AM 48.2 °F - 33.8 °F 58% 30.31 in 10.0 mi North 10.4 mph 20.7 mph N/A   Clear
2:35 AM 48.2 °F - 33.8 °F 58% 30.31 in 10.0 mi North 13.8 mph 20.7 mph N/A   Clear
2:55 AM 48.2 °F - 33.8 °F 58% 30.31 in 10.0 mi NNE 9.2 mph 18.4 mph N/A   Clear
3:15 AM 48.2 °F - 33.8 °F 58% 30.31 in 10.0 mi North 11.5 mph 19.6 mph N/A   Clear
3:35 AM 48.2 °F - 33.8 °F 58% 30.31 in 10.0 mi NNE 12.7 mph 18.4 mph N/A   Clear
3:55 AM 48.2 °F - 33.8 °F 58% 30.30 in 10.0 mi NNE 15.0 mph 19.6 mph N/A   Clear
4:15 AM 48.2 °F - 32.0 °F 54% 30.30 in 10.0 mi NNE 9.2 mph 19.6 mph N/A   Clear
4:35 AM 48.2 °F - 30.2 °F 50% 30.31 in 10.0 mi North 10.4 mph 19.6 mph N/A   Clear
4:55 AM 46.4 °F 41.1 °F 30.2 °F 53% 30.31 in 10.0 mi North 11.5 mph 18.4 mph N/A   Clear
5:15 AM 46.4 °F 41.9 °F 30.2 °F 53% 30.33 in 10.0 mi North 9.2 mph 20.7 mph N/A   Clear
5:35 AM 46.4 °F 41.1 °F 28.4 °F 50% 30.34 in 10.0 mi North 11.5 mph 20.7 mph N/A   Clear
5:55 AM 46.4 °F 40.7 °F 28.4 °F 50% 30.35 in 10.0 mi North 12.7 mph 21.9 mph N/A   Clear
6:15 AM 46.4 °F 41.1 °F 28.4 °F 50% 30.35 in 10.0 mi North 11.5 mph 18.4 mph N/A   Clear
6:35 AM 44.6 °F 39.2 °F 28.4 °F 53% 30.34 in 10.0 mi NNE 10.4 mph 21.9 mph N/A   Clear
6:55 AM 44.6 °F 39.2 °F 26.6 °F 49% 30.34 in 10.0 mi NNE 10.4 mph 20.7 mph N/A   Clear
7:15 AM 44.6 °F 39.7 °F 26.6 °F 49% 30.34 in 10.0 mi NNE 9.2 mph 17.3 mph N/A   Clear
7:35 AM 44.6 °F 42.2 °F 26.6 °F 49% 30.35 in 10.0 mi NNE 4.6 mph 23.0 mph N/A   Clear
7:55 AM 44.6 °F 38.1 °F 24.8 °F 46% 30.36 in 10.0 mi North 13.8 mph 21.9 mph N/A   Clear
8:15 AM 44.6 °F 39.2 °F 24.8 °F 46% 30.36 in 10.0 mi North 10.4 mph 21.9 mph N/A   Clear
8:35 AM 44.6 °F 40.2 °F 24.8 °F 46% 30.37 in 10.0 mi NNE 8.1 mph 23.0 mph N/A   Clear
8:55 AM 44.6 °F 37.8 °F 24.8 °F 46% 30.38 in 10.0 mi NNE 15.0 mph 23.0 mph N/A   Clear
9:15 AM 44.6 °F 40.2 °F 24.8 °F 46% 30.38 in 10.0 mi North 8.1 mph 21.9 mph N/A   Clear
9:35 AM 44.6 °F 39.7 °F 24.8 °F 46% 30.38 in 10.0 mi North 9.2 mph 18.4 mph N/A   Clear
9:55 AM 46.4 °F 39.8 °F 24.8 °F 43% 30.37 in 10.0 mi NNE 16.1 mph 24.2 mph N/A   Clear
10:15 AM 46.4 °F 41.9 °F 24.8 °F 43% 30.37 in 10.0 mi North 9.2 mph 18.4 mph N/A   Clear
10:35 AM 46.4 °F 41.1 °F 24.8 °F 43% 30.37 in 10.0 mi North 11.5 mph 23.0 mph N/A   Clear
10:55 AM 48.2 °F - 26.6 °F 43% 30.37 in 10.0 mi NNE 10.4 mph 20.7 mph N/A   Clear
11:15 AM 48.2 °F - 24.8 °F 40% 30.37 in 9.0 mi NNE 10.4 mph 18.4 mph N/A   Clear
11:35 AM 50.0 °F - 24.8 °F 37% 30.36 in 10.0 mi North 11.5 mph 19.6 mph N/A   Clear
11:55 AM 50.0 °F - 24.8 °F 37% 30.35 in 10.0 mi North 11.5 mph 18.4 mph N/A   Clear
12:15 PM 51.8 °F - 24.8 °F 35% 30.34 in 10.0 mi NNE 11.5 mph 18.4 mph N/A   Clear
12:35 PM 51.8 °F - 24.8 °F 35% 30.33 in 10.0 mi NNE 11.5 mph 18.4 mph N/A   Clear
12:55 PM 51.8 °F - 26.6 °F 38% 30.31 in 10.0 mi NNE 10.4 mph 16.1 mph N/A   Clear
1:15 PM 51.8 °F - 24.8 °F 35% 30.30 in 10.0 mi NNE 11.5 mph 19.6 mph N/A   Clear
1:35 PM 53.6 °F - 24.8 °F 33% 30.29 in 10.0 mi North 9.2 mph - N/A   Clear
1:55 PM 53.6 °F - 24.8 °F 33% 30.29 in 10.0 mi NNE 10.4 mph - N/A   Clear
2:15 PM 53.6 °F - 24.8 °F 33% 30.29 in 10.0 mi NNE 15.0 mph 20.7 mph N/A   Clear
2:35 PM 53.6 °F - 24.8 °F 33% 30.28 in 10.0 mi NE 11.5 mph 17.3 mph N/A   Clear
2:55 PM 53.6 °F - 24.8 °F 33% 30.28 in 10.0 mi NNE 11.5 mph 17.3 mph N/A   Clear
3:15 PM 53.6 °F - 24.8 °F 33% 30.29 in 10.0 mi North 9.2 mph 16.1 mph N/A   Clear
3:35 PM 53.6 °F - 24.8 °F 33% 30.28 in 10.0 mi NNE 8.1 mph 18.4 mph N/A   Clear
3:55 PM 53.6 °F - 24.8 °F 33% 30.29 in 10.0 mi NNE 9.2 mph 16.1 mph N/A   Clear
4:15 PM 53.6 °F - 24.8 °F 33% 30.29 in 10.0 mi NNE 9.2 mph - N/A   Clear
4:35 PM 53.6 °F - 24.8 °F 33% 30.30 in 10.0 mi North 6.9 mph - N/A   Clear
4:55 PM 53.6 °F - 26.6 °F 35% 30.30 in 10.0 mi North 6.9 mph - N/A   Clear
5:15 PM 53.6 °F - 26.6 °F 35% 30.31 in 10.0 mi NNE 6.9 mph - N/A   Clear
5:35 PM 51.8 °F - 26.6 °F 38% 30.31 in 10.0 mi North 8.1 mph - N/A   Clear
5:55 PM 51.8 °F - 26.6 °F 38% 30.31 in 10.0 mi NNE 5.8 mph - N/A   Clear
6:15 PM 51.8 °F - 24.8 °F 35% 30.31 in 10.0 mi NE 8.1 mph - N/A   Clear
6:35 PM 51.8 °F - 24.8 °F 35% 30.31 in 10.0 mi NNE 8.1 mph - N/A   Clear
6:55 PM 51.8 °F - 24.8 °F 35% 30.33 in 10.0 mi NNE 9.2 mph - N/A   Clear
7:15 PM 51.8 °F - 24.8 °F 35% 30.33 in 10.0 mi NNE 8.1 mph - N/A   Clear
7:35 PM 50.0 °F - 24.8 °F 37% 30.33 in 10.0 mi NNE 10.4 mph 16.1 mph N/A   Clear
7:55 PM 50.0 °F - 24.8 °F 37% 30.33 in 10.0 mi NE 5.8 mph 16.1 mph N/A   Clear
8:15 PM 48.2 °F - 24.8 °F 40% 30.33 in 10.0 mi NNE 6.9 mph - N/A   Clear
8:35 PM 48.2 °F - 26.6 °F 43% 30.34 in 10.0 mi NNE 5.8 mph - N/A   Clear
8:55 PM 48.2 °F - 24.8 °F 40% 30.34 in 10.0 mi NNE 4.6 mph 16.1 mph N/A   Clear
9:15 PM 48.2 °F - 24.8 °F 40% 30.34 in 10.0 mi NNE 6.9 mph - N/A   Clear
9:35 PM 48.2 °F - 24.8 °F 40% 30.34 in 10.0 mi NNE 6.9 mph 17.3 mph N/A   Clear
9:55 PM 48.2 °F - 24.8 °F 40% 30.34 in 10.0 mi North 5.8 mph - N/A   Clear
10:15 PM 46.4 °F 43.5 °F 24.8 °F 43% 30.33 in 10.0 mi NNE 5.8 mph - N/A   Clear
10:35 PM 46.4 °F 42.4 °F 24.8 °F 43% 30.33 in 10.0 mi NNE 8.1 mph 17.3 mph N/A   Clear
10:55 PM 46.4 °F 42.9 °F 24.8 °F 43% 30.33 in 10.0 mi NNE 6.9 mph - N/A   Clear
11:15 PM 46.4 °F 44.3 °F 24.8 °F 43% 30.32 in 10.0 mi NNE 4.6 mph 17.3 mph N/A   Clear
11:35 PM 46.4 °F 43.5 °F 24.8 °F 43% 30.31 in 10.0 mi NNE 5.8 mph - N/A   Clear
11:55 PM 44.6 °F 40.2 °F 24.8 °F 46% 30.29 in 10.0 mi NE 8.1 mph - N/A   Clear